Location: Cheyres
(46.8153°N, 6.7877°E)
Time: 22:21:59
(UTC+00:00)

QB50P2 - Pass Details

Date: 26 June 2022
Orbit: 590 x 605 km, 97.9° (Epoch: 15 August)

Event Time Altitude Azimuth Distance (km) Brightness Sun altitude
Rises 02:24:18 0° 357° (N) 2,855 ? -10.2°
Reaches altitude 10° 02:27:13 10° 335° (NNW) 1,950 ? -9.9°
Maximum altitude 02:29:42 15° 299° (WNW) 1,621 ? -9.6°
Drops below altitude 10° 02:32:11 10° 263° (W) 1,948 ? -9.3°
Enters shadow 02:33:00 - 255° (WSW) 2,165 ? -9.2°
